Weather in Chistye Prudy

Russia / Kaliningrad Oblast     54°27′22″N   22°25′36″E
temp.,
°C
wind,
m/s
gust,
m/s
humid.,
%
clouds,
%
prec.,
mm/h
press.,
hPa
HPBL,
m
21 april, wed
wed2123:00+7nnw117956 0.0 101110
02:00+6wsw338568 0.0 101146
05:00+4wsw358170 0.0 101084
08:00+8wnw35675 0.0 1010264
11:00+12wnw45505 0.0 1009968
14:00+14w56445 0.0 10081921
17:00+14w55514 0.0 10081806
20:00+8w2273100 0.0 100811
22 april, thu
thu2223:00+5w378599 0.0 1009202
02:00+6w4979100 0.1 1009659
05:00+3wsw4896100 1.3 1008498
08:00+5wsw69725 1.5 10091106
11:00+6wsw71065100 0.1 10091455
14:00+7wsw8116399 0.4 10101735
17:00+7w6105848 0.7 10101708
20:00+3wsw497285 0.8 1011364
23 april, fri
fri2323:00+1sw512785 0.0 1011463
02:00+1wsw7138642 0.0 1011625
05:00+2wsw6118344 0.0 1011748
08:00+4wsw71070100 0.0 10121028
11:00+5w7961100 0.8 10131569
14:00+4wnw6977100 2.1 10151209
17:00+5wnw797185 0.8 10151370
20:00+2wnw6118873 0.9 1017673
24 april, sat
sat2423:00+1w51093100 0.1 1017607
02:00+1w51096100 0.2 1017605
05:00+1wnw4998100 1.0 1016385
08:00+3wnw5883100 1.8 1016910
11:00+5wnw796393 0.7 10161738
14:00+6wnw8952100 1.4 10162146
17:00+5wnw795386 0.2 10162100
20:00+1wnw510745 0.2 1016551
25 april, sun
sun2523:000wsw61297100 0.3 1015632
02:00+2wnw61091100 0.9 10141009
05:00+1nw6119086 0.3 1014930
08:00+2nw7128190 0.4 10151273
11:00+4nw81169100 0.6 10161590
14:00+5wnw81057100 1.3 10161992
17:00+3nw71071100 0.4 10161246
20:00+1wnw5985100 0.4 1016576